Location: Buisson
(44.2787°N, 4.9969°E)
Time: 06:40:12
(UTC+00:00)

Resurs 1-4 Rocket - Pass Details

Date: 18 April 2021
Orbit: 799 x 815 km, 98.6° (Epoch: 06 May)

Event Time Altitude Azimuth Distance (km) Brightness Sun altitude
Rises 00:28:28 0° 23° (NNE) 3,324 6.3 -33.8°
Reaches altitude 10° 00:31:04 10° 33° (NNE) 2,386 5.3 -33.6°
Enters shadow 00:34:31 29° 70° (ENE) 1,450 3.6 -33.5°
